Location: Caltech
(34.1382°N, 118.1253°W)
Time: 17:20:53
(UTC-07:00)

Iridium 62 - Visible Passes

Search period start: 01 September 2015 00:00
Search period end: 11 September 2015 00:00
Orbit: 776 x 779 km, 86.4° (Epoch: 01 September)

Date Brightness Start Highest point End Pass type
(mag) Time Alt. Az. Time Alt. Az. Time Alt. Az.
01 Sep 8.4 22:28:47 10° NNE 22:29:16 12° NNE 22:29:16 12° NNE visible
02 Sep 8.8 23:36:00 10° NNW 23:36:17 11° NNW 23:36:17 11° NNW visible
03 Sep 8.5 23:02:07 10° N 23:02:52 14° N 23:02:52 14° N visible
04 Sep 8.3 22:28:38 10° N 22:29:26 14° N 22:29:26 14° N visible
05 Sep 8.3 21:55:34 10° NNE 21:56:01 12° NNE 21:56:01 12° NNE visible
06 Sep 8.5 23:02:21 10° NNW 23:03:03 14° NNW 23:03:03 14° NNW visible
07 Sep 8.2 22:28:38 10° N 22:29:40 16° N 22:29:40 16° N visible
08 Sep 8.1 21:55:18 10° NNE 21:56:15 15° NNE 21:56:15 15° NNE visible
09 Sep 8.1 21:22:27 10° NNE 21:22:53 12° NNE 21:22:53 12° NNE visible
09 Sep 8.6 23:02:45 10° NNW 23:03:21 13° NNW 23:03:21 13° NNW visible
10 Sep 8.2 22:28:46 10° N 22:29:58 17° NNW 22:29:58 17° NNW visible
